RH
3 3 3 3 3 3 2 2 2 2 2 3 3 4 3 2 6 29 25 24 21 22 22 20 19 19 20 21 21 19 22 23 21 20 19 18 17 16 15 16 15 15 12 11 12
3 3 2 2 2 2 2 3 3 3 3 4 4 4 5 4 6 30 24 26 25 22 27 27 24 23 21 23 25 23 21 19 16 16 17 17 16 14 13 12 13 12 12 12 12
2 2 2 2 3 3 4 3 3 4 5 5 6 6 8 8 18 35 27 29 28 27 26 28 26 22 25 27 28 26 19 19 17 17 17 15 14 14 14 13 14 12 12 16 17
2 2 3 4 4 4 3 3 4 8 14 12 10 17 21 26 30 37 30 32 31 30 28 27 29 33 33 26 23 24 25 23 22 19 17 14 15 15 16 16 16 16 16 16 15
3 4 4 4 3 3 3 5 8 19 30 30 20 28 40 40 40 37 34 36 35 34 33 33 33 34 28 25 22 23 24 25 23 21 18 17 19 20 18 17 16 15 15 16 15
4 4 4 3 3 4 7 12 20 27 34 43 43 28 30 43 44 40 39 38 40 39 38 35 30 29 29 30 27 25 24 21 20 19 18 19 21 20 17 15 15 17 17 15 12
4 4 3 4 7 11 17 23 25 26 32 39 44 49 41 22 38 48 49 45 40 40 38 38 35 32 30 32 29 24 22 22 21 21 22 21 20 18 18 19 19 18 15 11 9
4 4 6 10 14 20 24 25 25 24 28 37 40 43 42 48 37 35 44 52 48 44 42 41 38 34 31 29 28 28 26 26 26 24 22 20 20 22 21 18 16 17 12 12 10
5 9 11 13 19 22 24 24 23 24 30 36 46 56 51 48 45 51 37 49 51 46 46 45 41 38 34 30 31 29 28 28 29 27 26 24 22 22 24 20 17 16 14 14 13
9 11 12 16 21 24 25 25 24 25 30 36 49 53 42 34 43 50 56 50 52 51 46 46 45 44 41 39 39 40 38 38 39 34 30 28 29 26 29 28 26 19 18 17 15
12 13 14 18 20 22 23 24 24 25 29 36 44 45 32 24 28 44 57 58 61 62 58 49 48 46 46 45 43 42 41 40 39 36 34 34 37 36 34 31 28 22 20 20 18
15 16 18 20 22 22 22 22 22 21 22 25 32 37 32 20 24 39 52 64 63 66 62 55 50 47 47 48 47 46 45 44 42 40 39 41 42 38 32 28 25 23 22 23 22
19 20 21 21 22 20 20 20 20 19 20 20 19 25 24 20 20 30 46 57 64 60 61 59 58 53 54 61 62 57 51 47 44 42 41 40 38 32 30 28 29 31 30 29 32
20 22 23 23 21 19 18 19 19 19 20 21 20 18 17 18 19 26 43 63 69 68 63 62 65 64 62 58 49 45 42 38 37 37 35 32 29 30 33 35 35 38 40 36 28
20 21 22 21 20 18 17 17 18 18 20 20 20 19 18 18 21 29 43 56 66 67 61 53 52 53 53 50 46 44 43 38 34 34 33 34 34 31 35 38 41 39 35 30 28
17 18 19 19 18 16 15 14 14 15 18 19 18 19 21 21 20 24 34 46 62 69 68 63 56 52 51 51 51 51 49 50 48 48 44 45 42 36 39 39 42 38 33 33 35
12 13 14 14 14 12 10 10 14 17 19 20 21 21 20 20 20 24 34 47 54 65 73 66 61 55 56 55 58 56 56 60 52 49 45 43 38 39 39 40 39 42 40 38 34
10 11 11 10 9 11 12 13 15 20 21 20 20 20 21 23 26 30 37 44 60 69 68 72 77 76 70 70 67 64 66 64 60 56 51 48 45 44 39 42 41 38 38 38 38
14 13 12 15 13 12 10 10 14 16 19 19 19 24 35 44 45 48 51 51 62 71 72 71 62 70 70 67 63 62 67 73 76 72 65 60 54 47 44 44 40 44 43 41 38
13 12 11 13 14 14 12 14 18 19 23 30 39 51 52 55 57 58 57 58 71 70 84 72 75 63 71 76 72 76 79 81 89 91 80 64 57 56 54 51 51 48 49 43 42
33 30 24 32 34 33 26 27 39 49 58 66 67 61 63 65 57 57 61 73 79 90 91 88 92 69 64 65 86 90 87 94 98 95 93 74 60 60 55 59 60 58 54 49 45
89 86 74 96 98 72 58 64 64 62 70 68 71 57 56 86 87 79 73 83 89 91 96 99 93 79 73 68 74 75 73 80 91 85 78 79 59 55 56 60 62 63 56 54 50
92 98 91 100 97 94 65 56 81 74 89 83 71 76 99 97 98 90 87 93 98 90 90 97 95 92 74 65 65 71 73 71 71 71 60 65 50 54 56 66 73 72 68 59 53
99 94 100 100 97 97 97 97 100 93 100 99 92 96 100 94 100 91 88 100 99 95 99 100 95 82 82 98 88 77 71 71 70 59 53 48 51 60 74 82 85 80 61 61 58
97 97 97 97 98 98 97 95 98 98 98 98 98 98 97 95 99 96 93 100 96 96 95 99 89 91 76 92 92 77 65 58 53 51 60 47 49 64 67 91 93 78 85 87 90
96 98 99 97 98 98 97 95 97 96 96 96 99 100 99 98 96 97 93 92 94 90 96 96 96 91 87 83 61 55 49 50 58 69 87 87 52 82 100 92 90 84 82 98 97
99 96 98 95 98 98 98 97 97 98 96 98 97 97 98 98 94 94 93 89 91 89 81 82 84 92 82 75 77 69 50 79 78 93 100 79 78 99 96 89 92 94 94 97 82
Wind_Speed
12 13 13 14 16 18 20 22 23 24 25 26 25 22 18 14 9 6 4 3 3 0 2 3 4 5 3 1 3 5 5 5 6 5 5 6 8 10 13 13 14 15 16 17 21
14 15 15 17 19 20 20 21 23 24 25 25 23 19 16 10 8 6 4 2 3 2 2 4 5 4 1 4 5 5 4 4 5 6 7 9 9 9 10 13 14 13 15 17 20
17 18 17 17 17 19 21 22 24 25 26 23 19 14 12 10 9 7 6 5 4 6 8 6 6 5 4 3 4 6 7 7 7 8 9 10 11 10 10 12 13 15 17 19 22
21 19 18 18 20 22 23 25 24 22 17 15 13 9 9 10 9 9 8 7 6 6 8 9 10 9 7 6 7 9 10 11 10 11 11 11 8 9 11 14 16 19 20 21 22
21 21 21 23 24 25 25 23 19 13 12 11 10 7 8 9 9 9 9 9 9 9 9 12 14 14 11 10 10 11 12 12 12 12 12 10 11 12 14 16 16 17 19 23 27
25 26 26 26 27 25 22 17 14 13 13 11 10 9 9 11 10 11 12 13 13 13 13 12 13 15 16 14 13 13 12 11 11 12 13 12 12 12 14 15 17 21 24 24 24
29 29 28 26 23 21 17 16 17 17 16 14 13 12 13 15 14 15 15 15 18 17 16 15 15 16 18 18 15 12 13 12 13 14 15 14 13 14 17 20 23 22 20 21 20
32 29 28 25 20 19 19 19 20 19 19 18 17 17 17 17 19 19 19 19 18 19 19 17 16 17 18 19 19 17 16 16 17 17 17 16 14 18 21 24 25 21 18 19 20
32 29 26 24 22 22 22 22 22 21 20 20 22 15 16 19 21 22 23 21 19 19 20 19 19 19 20 22 22 22 21 21 20 22 21 20 22 22 21 23 22 22 21 22 26
33 31 29 28 27 26 26 26 24 23 23 22 23 20 18 18 19 24 25 25 23 21 21 21 21 22 23 25 26 26 26 27 28 24 24 22 23 26 27 27 26 25 25 26 24
34 32 32 31 30 30 30 30 29 27 26 26 25 24 22 22 20 21 24 26 25 25 24 24 23 23 25 27 28 30 31 30 28 26 25 25 24 29 32 32 28 27 28 29 25
37 35 35 34 34 34 34 34 33 32 29 31 29 28 26 25 23 20 20 25 27 24 23 23 24 24 24 25 26 25 26 28 28 29 29 28 28 29 29 25 24 26 28 25 27
40 39 39 38 37 37 37 37 36 37 37 32 33 32 30 28 27 25 21 22 27 27 27 26 26 28 29 31 31 30 30 31 33 33 34 36 31 22 23 23 26 28 30 31 34
45 44 43 42 41 41 39 39 39 40 44 38 36 34 33 32 30 27 25 21 24 28 28 28 28 30 31 30 30 27 31 34 35 35 32 29 30 23 26 29 31 35 32 32 33
50 49 48 46 45 44 43 42 42 42 52 45 40 34 31 31 29 26 26 25 26 27 30 30 30 30 29 31 31 32 34 30 29 29 29 27 35 31 32 35 36 38 38 37 38
54 53 52 51 50 47 47 46 46 48 56 48 42 36 35 35 36 33 30 31 31 31 31 32 33 33 34 33 34 35 31 31 30 33 34 31 34 33 36 37 40 42 41 44 47
59 58 56 55 53 53 51 50 51 56 53 49 45 40 37 36 35 37 36 36 36 35 35 37 36 35 36 37 38 38 37 38 38 35 35 36 41 36 41 44 44 46 48 47 49
62 62 61 57 56 56 56 55 60 61 54 51 48 46 44 43 41 42 44 43 41 42 43 43 44 41 41 42 43 44 41 37 43 43 45 47 51 49 51 51 50 52 52 53 54
63 64 63 57 59 59 60 64 64 59 55 51 49 51 49 46 48 47 47 47 46 45 46 50 51 48 46 46 48 47 45 46 49 50 53 55 53 53 50 52 55 57 57 56 57
65 64 64 60 61 62 64 69 68 58 57 54 56 54 53 52 52 53 52 50 48 48 46 50 51 54 52 52 52 50 52 52 52 54 57 54 53 53 53 56 59 59 58 60 62
66 65 65 61 64 66 71 69 63 61 61 60 60 61 56 54 56 56 54 52 50 46 48 51 52 56 57 55 52 54 55 53 55 57 56 56 56 56 59 60 60 58 60 61 65
73 71 72 67 68 73 74 70 68 64 62 64 61 63 61 53 55 58 57 51 50 51 52 52 55 58 59 60 58 57 56 55 56 60 62 65 64 60 61 62 61 62 64 65 68
77 73 72 71 71 72 73 72 67 69 66 66 67 61 57 60 57 59 56 54 53 58 59 57 58 57 60 61 60 60 60 61 62 63 65 66 66 62 65 64 65 68 68 71 73
81 78 75 75 74 70 69 69 68 69 67 65 64 63 64 65 62 63 60 57 58 60 62 65 65 65 63 62 63 64 61 62 65 68 66 69 65 68 67 67 67 69 74 77 79
81 83 81 78 76 74 73 71 71 70 71 71 72 72 73 71 70 70 69 68 68 67 66 65 68 68 68 66 67 68 69 68 71 70 74 68 73 74 69 68 67 72 73 74 71
81 80 85 83 80 78 78 78 77 78 76 76 75 75 75 75 75 74 76 76 74 72 69 70 72 69 69 68 70 70 68 72 74 74 74 75 75 69 68 74 75 76 77 70 68
76 81 83 85 82 82 79 78 77 77 78 77 78 77 75 75 76 76 75 74 73 73 73 72 71 70 72 74 76 77 75 73 73 76 78 81 78 80 81 78 75 78 74 67 69
Wind_Direction
249 260 271 280 289 297 305 312 317 320 321 322 322 320 316 320 313 302 313 326 332 21 121 97 95 97 102 315 303 303 299 315 326 333 313 319 325 321 325 332 331 323 320 320 328
250 262 274 283 290 296 302 308 313 315 315 315 315 313 305 295 280 261 258 256 274 251 156 148 140 116 43 333 302 307 302 309 307 318 316 313 318 320 331 339 339 337 339 337 336
254 262 267 272 280 288 295 301 307 311 314 313 313 310 294 267 255 245 240 242 260 267 256 228 224 247 270 271 276 267 277 297 298 305 305 306 309 311 317 324 325 327 327 332 333
251 255 262 273 282 288 295 301 306 312 319 321 318 302 283 269 260 246 237 247 248 258 275 266 265 261 250 248 251 258 267 278 283 282 284 296 302 305 314 320 326 328 330 334 337
249 256 266 275 280 284 288 292 296 301 313 320 321 290 289 279 265 251 249 255 253 254 257 273 275 268 252 247 247 259 264 273 277 279 280 290 305 316 320 324 327 327 331 328 328
253 259 266 271 275 277 278 278 282 293 301 311 313 298 271 287 277 263 260 261 263 264 268 266 270 270 263 259 261 267 278 284 288 284 284 291 299 309 313 318 318 326 323 324 323
254 258 263 265 266 265 265 272 282 295 296 299 299 300 291 266 270 278 281 277 270 268 267 272 272 270 271 277 276 276 283 287 290 291 290 295 307 305 311 315 318 316 319 326 331
253 257 261 260 254 255 265 276 284 290 292 295 296 293 290 288 275 269 271 281 279 274 268 265 268 272 277 279 287 291 288 289 293 294 296 296 293 310 313 316 311 311 318 330 330
253 257 254 249 249 255 264 270 277 282 283 289 299 293 301 289 285 280 271 273 277 278 274 270 266 267 273 279 287 292 295 297 298 298 295 295 296 301 316 316 314 310 310 322 318
253 251 247 247 252 258 263 269 273 276 278 282 291 289 295 303 305 286 276 269 268 271 277 275 273 274 275 278 285 291 293 295 295 291 291 295 306 302 311 310 307 305 313 314 319
248 248 248 251 257 263 269 273 275 274 275 275 282 282 289 295 302 301 286 271 265 267 276 277 277 278 280 283 286 288 289 289 289 287 287 293 302 305 306 306 306 305 307 307 298
247 248 251 255 260 264 268 270 273 274 271 276 277 279 286 290 292 294 296 280 272 267 269 274 277 278 282 286 287 287 287 286 286 286 287 291 299 302 302 306 307 303 299 302 305
249 251 253 256 260 264 267 269 272 273 273 269 273 276 282 284 286 287 289 292 279 268 264 263 272 275 280 283 282 284 288 289 288 286 286 289 294 291 285 290 300 306 306 304 311
249 252 255 258 260 262 264 269 272 275 274 272 272 277 277 277 277 278 277 280 276 275 273 270 271 271 279 283 286 288 293 293 290 288 288 288 291 290 295 301 306 311 312 311 313
250 252 253 256 257 260 264 265 268 271 272 275 275 273 275 275 275 273 271 269 269 274 274 275 273 271 272 276 277 284 284 283 287 289 292 291 292 297 304 304 308 311 311 308 310
251 253 254 257 258 259 261 264 267 266 268 272 275 274 274 276 277 276 269 269 268 266 266 266 266 270 270 268 272 281 281 279 280 286 288 290 289 293 300 301 304 309 308 307 307
254 254 255 257 259 260 261 263 263 263 267 272 274 278 277 273 273 275 273 268 268 270 264 263 265 266 266 267 273 277 278 283 282 283 290 296 293 298 300 304 306 304 305 309 309
252 255 256 255 258 260 261 260 261 265 268 271 278 278 276 274 271 270 271 272 271 268 265 263 261 259 263 269 271 270 277 281 284 291 294 296 297 301 300 302 305 308 309 310 309
252 254 256 258 258 257 258 260 261 264 269 272 271 273 274 275 273 269 269 270 271 271 273 272 269 269 266 267 266 268 271 271 276 280 284 287 292 296 299 299 303 304 304 306 307
250 251 254 255 256 257 257 260 263 266 269 269 271 271 273 270 267 269 269 265 266 270 268 268 271 272 272 271 271 274 273 274 278 283 283 289 292 293 295 299 301 304 305 307 307
251 252 251 252 253 255 260 264 265 267 267 266 269 270 270 268 268 267 264 266 268 269 269 268 267 268 270 274 276 276 277 279 280 284 289 290 289 295 298 299 302 303 304 305 303
251 252 255 254 254 259 262 265 266 265 265 265 263 265 267 264 263 266 265 264 269 270 269 268 271 270 272 272 272 278 280 282 283 287 286 288 292 296 298 298 302 303 304 302 303
249 251 253 254 253 256 259 261 260 263 260 261 262 262 264 263 260 260 265 274 271 270 270 271 271 272 271 271 274 277 277 281 285 286 288 289 292 294 295 299 301 301 301 299 301
248 246 246 248 250 249 249 251 256 258 257 258 263 264 262 260 261 264 265 268 271 271 269 271 270 270 272 277 277 278 282 285 285 284 289 286 292 294 295 299 301 300 301 302 303
249 246 246 248 246 247 248 252 251 255 257 258 260 261 263 264 263 263 265 267 270 271 272 272 272 273 272 273 275 278 282 281 280 284 285 293 290 293 297 298 292 297 295 295 300
251 249 248 249 251 251 252 255 257 259 261 260 262 262 265 268 270 272 269 269 271 273 274 274 275 272 273 273 277 281 280 281 285 288 286 286 294 297 293 292 297 295 295 295 295
255 255 252 251 255 254 256 258 259 260 260 261 261 263 265 267 270 273 273 273 274 276 277 277 277 277 280 281 279 280 284 283 285 284 285 288 296 292 293 295 294 291 294 295 295